Overview Statistics Trail Chart Weather Telemetry Raw packets
 

This is the latest recevied weather packets stored in our database for station/object IW2NIA-3. If no packets are shown the sender has not sent any weather packets the latest 10 day(s).

<< 32 33 34 35 36 37 38 >>
Time Temp. Humidity Pressure Rain* Wind** Luminosity Snow
1787897924 22.22° C 94% 1016 hPa 0 mm - - -
1787897021 22.22° C 94% 1016.6 hPa 0 mm - - -
1787896116 22.22° C 93% 1016.7 hPa 0 mm - - -
1787895211 21.67° C 93% 1017 hPa 0 mm - - -
1787894308 21.67° C 93% 1016.5 hPa 0 mm - - -
1787893425 21.67° C 93% 1016.3 hPa 0 mm - - -
1787892520 21.67° C 93% 1015.9 hPa 0 mm - - -
1787891611 22.22° C 92% 1015.6 hPa 0 mm - - -
1787890726 22.22° C 92% 1015.8 hPa 0 mm - - -
1787889820 22.22° C 92% 1015.6 hPa 0.25 mm - - -
1787888918 22.22° C 91% 1015.6 hPa 4.06 mm - - -
1787888010 22.78° C 90% 1015.3 hPa 6.1 mm - - -
1787887122 22.78° C 89% 1016 hPa 6.1 mm - - -
1787886216 23.33° C 87% 1016.4 hPa 5.84 mm - - -
1787885309 23.89° C 84% 1015.4 hPa 2.03 mm - - -
1787884406 24.44° C 80% 1015.2 hPa 0 mm - - -
1787883508 24.44° C 80% 1016.1 hPa 0 mm - - -
1787882624 24.44° C 81% 1015.5 hPa 0 mm - - -
1787881721 24.44° C 81% 1016.9 hPa 0 mm - - -
1787880818 24.44° C 80% 1016.8 hPa 0 mm - - -
1787879920 24.44° C 80% 1016.5 hPa 0 mm - - -
1787879014 24.44° C 80% 1016.2 hPa 0 mm - - -
1787878109 24.44° C 79% 1016.3 hPa 0 mm - - -
1787877225 24.44° C 79% 1016.3 hPa 0 mm - - -
1787876324 24.44° C 78% 1016.4 hPa 0 mm - - -

* Rain latest hour (hover to see other rain measurements)
** Current wind speed in m/s (hover to see current wind gust speed)